Location: Zlin
(49.2330°N, 17.6670°E)
Time: 01:45:54
(UTC+02:00)

ISS - Visible Passes

Search period start: 02 October 2020 00:00
Search period end: 12 October 2020 00:00
Orbit: 419 x 421 km, 51.6° (Epoch: 02 October)

Date Brightness Start Highest point End Pass type
(mag) Time Alt. Az. Time Alt. Az. Time Alt. Az.
02 Oct -2.9 20:19:47 10° WNW 20:22:59 40° SSW 20:23:18 39° SSW visible
03 Oct -3.3 19:32:26 10° WNW 19:35:46 58° SSW 19:37:58 19° SE visible
03 Oct -0.7 21:10:29 10° WSW 21:10:57 11° WSW 21:10:57 11° WSW visible
04 Oct -1.6 20:22:29 10° W 20:24:56 19° SW 20:25:41 18° SSW visible
05 Oct -2.0 19:34:52 10° W 19:37:47 27° SW 19:40:31 11° SSE visible
06 Oct -2.5 18:47:23 10° WNW 18:50:35 40° SSW 18:53:45 10° SE visible
07 Oct -0.8 19:38:05 10° WSW 19:39:34 12° SW 19:41:04 10° SSW visible
08 Oct -1.1 18:50:01 10° W 18:52:26 19° SW 18:54:52 10° S visible
